Time,TemperatureF,DewpointF,PressureIn,WindDirection,WindDirectionDegrees,WindSpeedMPH,WindSpeedGustMPH,Humidity,HourlyPrecipIn,Conditions,Clouds,dailyrainin,SoftwareType,DateUTC
2013-06-16 00:01:00,49.0,33.0,30.09,ENE,68,2.0,-999.0,54,-99.99,,,-99.99,,2013-06-16 06:01:00,
2013-06-16 00:11:00,49.0,33.0,30.10,East,91,1.0,-999.0,54,-99.99,,,-99.99,,2013-06-16 06:11:00,
2013-06-16 00:22:00,49.0,34.0,30.09,NW,322,1.0,-999.0,55,-99.99,,,-99.99,,2013-06-16 06:22:00,
2013-06-16 00:33:00,49.0,34.0,30.09,ESE,116,2.0,-999.0,56,-99.99,,,-99.99,,2013-06-16 06:33:00,
2013-06-16 00:43:00,49.0,34.0,30.09,East,85,2.0,-999.0,56,-99.99,,,-99.99,,2013-06-16 06:43:00,
2013-06-16 00:52:00,49.0,34.0,30.09,East,95,1.0,-999.0,56,-99.99,,,-99.99,,2013-06-16 06:52:00,
2013-06-16 01:01:00,49.0,34.0,30.09,SSE,149,2.0,-999.0,56,-99.99,,,-99.99,,2013-06-16 07:01:00,
2013-06-16 01:11:00,48.0,34.0,30.09,ENE,73,1.0,-999.0,57,-99.99,,,-99.99,,2013-06-16 07:11:00,
2013-06-16 01:22:00,48.0,34.0,30.09,ENE,61,2.0,-999.0,58,-99.99,,,-99.99,,2013-06-16 07:22:00,
2013-06-16 01:32:00,48.0,34.0,30.08,SE,135,1.0,-999.0,59,-99.99,,,-99.99,,2013-06-16 07:32:00,
2013-06-16 01:43:00,47.0,34.0,30.08,ESE,112,0.0,-999.0,61,-99.99,,,-99.99,,2013-06-16 07:43:00,
2013-06-16 01:53:00,47.0,34.0,30.09,East,91,0.0,-999.0,61,-99.99,,,-99.99,,2013-06-16 07:53:00,
2013-06-16 02:01:00,48.0,34.0,30.08,East,86,1.0,-999.0,59,-99.99,,,-99.99,,2013-06-16 08:01:00,
2013-06-16 02:11:00,48.0,34.0,30.08,East,79,1.0,-999.0,57,-99.99,,,-99.99,,2013-06-16 08:11:00,
2013-06-16 02:22:00,49.0,34.0,30.09,ENE,69,0.0,-999.0,56,-99.99,,,-99.99,,2013-06-16 08:22:00,
2013-06-16 02:33:00,48.0,34.0,30.09,ENE,69,0.0,-999.0,58,-99.99,,,-99.99,,2013-06-16 08:33:00,
2013-06-16 02:43:00,47.0,33.0,30.09,ENE,69,0.0,-999.0,59,-99.99,,,-99.99,,2013-06-16 08:43:00,
2013-06-16 02:54:00,47.0,34.0,30.09,ENE,69,0.0,-999.0,60,-99.99,,,-99.99,,2013-06-16 08:54:00,
2013-06-16 03:01:00,47.0,34.0,30.08,ENE,69,0.0,-999.0,61,-99.99,,,-99.99,,2013-06-16 09:01:00,
2013-06-16 03:11:00,47.0,34.0,30.08,ENE,69,0.0,-999.0,61,-99.99,,,-99.99,,2013-06-16 09:11:00,
2013-06-16 03:22:00,47.0,34.0,30.08,ENE,69,0.0,-999.0,61,-99.99,,,-99.99,,2013-06-16 09:22:00,
2013-06-16 03:33:00,47.0,34.0,30.08,ENE,69,0.0,-999.0,61,-99.99,,,-99.99,,2013-06-16 09:33:00,
2013-06-16 03:42:00,46.0,33.0,30.08,ENE,69,0.0,-999.0,61,-99.99,,,-99.99,,2013-06-16 09:42:00,
2013-06-16 03:52:00,46.0,33.0,30.08,ENE,69,0.0,-999.0,61,-99.99,,,-99.99,,2013-06-16 09:52:00,
2013-06-16 04:01:00,46.0,34.0,30.08,ENE,69,0.0,-999.0,62,-99.99,,,-99.99,,2013-06-16 10:01:00,
2013-06-16 04:11:00,46.0,34.0,30.08,ENE,69,0.0,-999.0,62,-99.99,,,-99.99,,2013-06-16 10:11:00,
2013-06-16 04:22:00,46.0,34.0,30.07,ENE,69,0.0,-999.0,62,-99.99,,,-99.99,,2013-06-16 10:22:00,
2013-06-16 04:33:00,45.0,34.0,30.07,ENE,69,0.0,-999.0,64,-99.99,,,-99.99,,2013-06-16 10:33:00,
2013-06-16 04:42:00,45.0,34.0,30.07,ENE,69,0.0,-999.0,64,-99.99,,,-99.99,,2013-06-16 10:42:00,
2013-06-16 04:53:00,45.0,34.0,30.07,ENE,69,0.0,-999.0,64,-99.99,,,-99.99,,2013-06-16 10:53:00,
2013-06-16 05:02:00,45.0,34.0,30.07,ENE,69,0.0,-999.0,64,-99.99,,,-99.99,,2013-06-16 11:02:00,
2013-06-16 05:11:00,45.0,34.0,30.07,ENE,69,0.0,-999.0,64,-99.99,,,-99.99,,2013-06-16 11:11:00,
2013-06-16 05:22:00,46.0,34.0,30.06,ENE,69,0.0,-999.0,62,-99.99,,,-99.99,,2013-06-16 11:22:00,
2013-06-16 05:33:00,47.0,34.0,30.07,ENE,69,0.0,-999.0,60,-99.99,,,-99.99,,2013-06-16 11:33:00,
2013-06-16 05:43:00,46.0,33.0,30.07,ENE,69,0.0,-999.0,61,-99.99,,,-99.99,,2013-06-16 11:43:00,
2013-06-16 05:52:00,46.0,33.0,30.07,ENE,69,0.0,-999.0,61,-99.99,,,-99.99,,2013-06-16 11:52:00,
2013-06-16 06:01:00,45.0,33.0,30.07,ENE,69,0.0,-999.0,62,-99.99,,,-99.99,,2013-06-16 12:01:00,
2013-06-16 06:11:00,45.0,34.0,30.07,ENE,69,0.0,-999.0,64,-99.99,,,-99.99,,2013-06-16 12:11:00,
2013-06-16 06:22:00,45.0,34.0,30.07,ENE,69,0.0,-999.0,65,-99.99,,,-99.99,,2013-06-16 12:22:00,
2013-06-16 06:32:00,45.0,34.0,30.07,ENE,69,0.0,-999.0,65,-99.99,,,-99.99,,2013-06-16 12:32:00,
2013-06-16 06:42:00,45.0,34.0,30.07,ENE,69,0.0,-999.0,65,-99.99,,,-99.99,,2013-06-16 12:42:00,
2013-06-16 06:53:00,46.0,35.0,30.07,ENE,69,0.0,-999.0,64,-99.99,,,-99.99,,2013-06-16 12:53:00,
2013-06-16 07:01:00,46.0,35.0,30.07,ENE,69,0.0,-999.0,64,-99.99,,,-99.99,,2013-06-16 13:01:00,
2013-06-16 07:11:00,46.0,34.0,30.07,ENE,69,0.0,-999.0,63,-99.99,,,-99.99,,2013-06-16 13:11:00,
2013-06-16 07:22:00,47.0,35.0,30.07,ENE,69,0.0,-999.0,63,-99.99,,,-99.99,,2013-06-16 13:22:00,
2013-06-16 07:34:00,47.0,35.0,30.07,ENE,69,0.0,-999.0,64,-99.99,,,-99.99,,2013-06-16 13:34:00,
2013-06-16 07:42:00,47.0,35.0,30.07,ENE,69,0.0,-999.0,63,-99.99,,,-99.99,,2013-06-16 13:42:00,
2013-06-16 07:53:00,47.0,36.0,30.07,ENE,70,0.0,-999.0,65,-99.99,,,-99.99,,2013-06-16 13:53:00,
2013-06-16 08:01:00,47.0,36.0,30.07,ENE,70,0.0,-999.0,65,-99.99,,,-99.99,,2013-06-16 14:01:00,
2013-06-16 08:12:00,48.0,37.0,30.07,East,83,1.0,-999.0,65,-99.99,,,-99.99,,2013-06-16 14:12:00,
2013-06-16 08:22:00,48.0,36.0,30.07,SE,141,2.0,-999.0,64,-99.99,,,-99.99,,2013-06-16 14:22:00,
2013-06-16 08:34:00,49.0,37.0,30.07,SSE,149,2.0,-999.0,64,-99.99,,,-99.99,,2013-06-16 14:34:00,
2013-06-16 08:43:00,49.0,37.0,30.07,South,191,3.0,-999.0,64,-99.99,,,-99.99,,2013-06-16 14:43:00,
2013-06-16 08:52:00,49.0,37.0,30.07,South,191,2.0,-999.0,63,-99.99,,,-99.99,,2013-06-16 14:52:00,
2013-06-16 09:02:00,50.0,38.0,30.07,SSW,197,2.0,-999.0,64,-99.99,,,-99.99,,2013-06-16 15:02:00,
2013-06-16 09:12:00,50.0,38.0,30.07,SSW,197,2.0,-999.0,64,-99.99,,,-99.99,,2013-06-16 15:12:00,
2013-06-16 09:22:00,51.0,38.0,30.07,SSW,201,2.0,-999.0,62,-99.99,,,-99.99,,2013-06-16 15:22:00,
2013-06-16 09:33:00,51.0,38.0,30.07,SSW,201,1.0,-999.0,62,-99.99,,,-99.99,,2013-06-16 15:33:00,
2013-06-16 09:43:00,51.0,38.0,30.07,SSW,201,2.0,-999.0,61,-99.99,,,-99.99,,2013-06-16 15:43:00,
2013-06-16 09:52:00,52.0,38.0,30.07,SSW,197,2.0,-999.0,58,-99.99,,,-99.99,,2013-06-16 15:52:00,
2013-06-16 10:01:00,52.0,39.0,30.07,SSW,197,2.0,-999.0,60,-99.99,,,-99.99,,2013-06-16 16:01:00,
2013-06-16 10:11:00,53.0,39.0,30.07,SSW,202,2.0,-999.0,60,-99.99,,,-99.99,,2013-06-16 16:11:00,
2013-06-16 10:22:00,54.0,40.0,30.07,SSW,210,3.0,-999.0,60,-99.99,,,-99.99,,2013-06-16 16:22:00,
2013-06-16 10:33:00,54.0,40.0,30.07,SSW,212,1.0,-999.0,60,-99.99,,,-99.99,,2013-06-16 16:33:00,
2013-06-16 10:43:00,54.0,40.0,30.07,SSW,212,0.0,-999.0,59,-99.99,,,-99.99,,2013-06-16 16:43:00,
2013-06-16 10:53:00,54.0,40.0,30.07,SSW,212,0.0,-999.0,59,-99.99,,,-99.99,,2013-06-16 16:53:00,
2013-06-16 11:01:00,52.0,40.0,30.07,SSW,212,0.0,-999.0,63,-99.99,,,-99.99,,2013-06-16 17:01:00,
2013-06-16 11:11:00,52.0,41.0,30.07,SSW,212,0.0,-999.0,65,-99.99,,,-99.99,,2013-06-16 17:11:00,
2013-06-16 11:22:00,53.0,42.0,30.06,SW,214,0.0,-999.0,65,-99.99,,,-99.99,,2013-06-16 17:22:00,
2013-06-16 11:34:00,55.0,43.0,30.07,WNW,303,2.0,-999.0,63,-99.99,,,-99.99,,2013-06-16 17:34:00,
2013-06-16 11:43:00,55.0,41.0,30.07,WNW,299,2.0,-999.0,59,-99.99,,,-99.99,,2013-06-16 17:43:00,
2013-06-16 11:52:00,55.0,41.0,30.06,WNW,303,1.0,-999.0,60,-99.99,,,-99.99,,2013-06-16 17:52:00,
2013-06-16 12:01:00,55.0,41.0,30.07,WNW,295,2.0,-999.0,59,-99.99,,,-99.99,,2013-06-16 18:01:00,
2013-06-16 12:11:00,54.0,39.0,30.07,NW,305,2.0,-999.0,57,-99.99,,,-99.99,,2013-06-16 18:11:00,
2013-06-16 12:22:00,56.0,41.0,30.07,NW,306,2.0,-999.0,56,-99.99,,,-99.99,,2013-06-16 18:22:00,
2013-06-16 12:33:00,54.0,38.0,30.07,NW,305,1.0,-999.0,54,-99.99,,,-99.99,,2013-06-16 18:33:00,
2013-06-16 12:43:00,55.0,37.0,30.07,NW,304,2.0,-999.0,50,-99.99,,,-99.99,,2013-06-16 18:43:00,
2013-06-16 12:52:00,55.0,35.0,30.08,WNW,291,3.0,-999.0,46,-99.99,,,-99.99,,2013-06-16 18:52:00,
2013-06-16 13:01:00,55.0,35.0,30.08,NW,326,3.0,-999.0,46,-99.99,,,-99.99,,2013-06-16 19:01:00,
2013-06-16 13:11:00,56.0,35.0,30.08,NW,321,3.0,-999.0,45,-99.99,,,-99.99,,2013-06-16 19:11:00,
2013-06-16 13:22:00,56.0,36.0,30.08,NNW,336,2.0,-999.0,46,-99.99,,,-99.99,,2013-06-16 19:22:00,
2013-06-16 13:33:00,55.0,37.0,30.07,NNW,335,2.0,-999.0,50,-99.99,,,-99.99,,2013-06-16 19:33:00,
2013-06-16 13:43:00,56.0,37.0,30.07,NNE,21,2.0,-999.0,48,-99.99,,,-99.99,,2013-06-16 19:43:00,
2013-06-16 13:53:00,56.0,37.0,30.07,NNW,341,2.0,-999.0,48,-99.99,,,-99.99,,2013-06-16 19:53:00,
2013-06-16 14:01:00,56.0,38.0,30.07,NNE,25,2.0,-999.0,50,-99.99,,,-99.99,,2013-06-16 20:01:00,
2013-06-16 14:11:00,56.0,34.0,30.07,North,354,2.0,-999.0,44,-99.99,,,-99.99,,2013-06-16 20:11:00,
2013-06-16 14:22:00,57.0,36.0,30.06,ENE,62,2.0,-999.0,45,-99.99,,,-99.99,,2013-06-16 20:22:00,
2013-06-16 14:33:00,58.0,37.0,30.07,NNW,332,2.0,-999.0,45,-99.99,,,-99.99,,2013-06-16 20:33:00,
2013-06-16 14:42:00,60.0,39.0,30.06,NW,317,1.0,-999.0,45,-99.99,,,-99.99,,2013-06-16 20:42:00,
2013-06-16 14:53:00,60.0,34.0,30.06,ENE,68,2.0,-999.0,37,-99.99,,,-99.99,,2013-06-16 20:53:00,
2013-06-16 15:01:00,60.0,35.0,30.06,NNW,343,2.0,-999.0,39,-99.99,,,-99.99,,2013-06-16 21:01:00,
2013-06-16 15:11:00,60.0,35.0,30.06,NNE,25,3.0,-999.0,39,-99.99,,,-99.99,,2013-06-16 21:11:00,
2013-06-16 15:21:00,59.0,35.0,30.06,North,11,3.0,-999.0,40,-99.99,,,-99.99,,2013-06-16 21:21:00,
2013-06-16 15:32:00,60.0,36.0,30.06,NNW,339,2.0,-999.0,40,-99.99,,,-99.99,,2013-06-16 21:32:00,
2013-06-16 15:42:00,59.0,37.0,30.06,WNW,297,2.0,-999.0,43,-99.99,,,-99.99,,2013-06-16 21:42:00,
2013-06-16 15:52:00,60.0,36.0,30.06,NW,315,3.0,-999.0,41,-99.99,,,-99.99,,2013-06-16 21:52:00,
2013-06-16 16:01:00,61.0,36.0,30.05,NW,313,1.0,-999.0,40,-99.99,,,-99.99,,2013-06-16 22:01:00,
2013-06-16 16:11:00,61.0,37.0,30.05,NW,307,2.0,-999.0,41,-99.99,,,-99.99,,2013-06-16 22:11:00,
2013-06-16 16:21:00,59.0,35.0,30.04,NW,326,5.0,-999.0,41,-99.99,,,-99.99,,2013-06-16 22:21:00,
2013-06-16 16:32:00,59.0,39.0,30.05,North,354,3.0,-999.0,47,-99.99,,,-99.99,,2013-06-16 22:32:00,
2013-06-16 16:41:00,61.0,38.0,30.05,NNE,29,2.0,-999.0,42,-99.99,,,-99.99,,2013-06-16 22:41:00,
2013-06-16 16:51:00,62.0,37.0,30.05,NW,305,1.0,-999.0,40,-99.99,,,-99.99,,2013-06-16 22:51:00,
2013-06-16 17:01:00,61.0,38.0,30.05,North,8,1.0,-999.0,42,-99.99,,,-99.99,,2013-06-16 23:01:00,
2013-06-16 17:11:00,61.0,36.0,30.04,NW,324,2.0,-999.0,40,-99.99,,,-99.99,,2013-06-16 23:11:00,
2013-06-16 17:21:00,63.0,40.0,30.04,ESE,120,0.0,-999.0,42,-99.99,,,-99.99,,2013-06-16 23:21:00,
2013-06-16 17:32:00,63.0,36.0,30.04,North,354,1.0,-999.0,37,-99.99,,,-99.99,,2013-06-16 23:32:00,
2013-06-16 17:42:00,63.0,38.0,30.04,ENE,75,1.0,-999.0,40,-99.99,,,-99.99,,2013-06-16 23:42:00,
2013-06-16 17:51:00,62.0,39.0,30.04,NW,316,2.0,-999.0,42,-99.99,,,-99.99,,2013-06-16 23:51:00,
2013-06-16 18:01:00,62.0,38.0,30.04,NE,34,2.0,-999.0,41,-99.99,,,-99.99,,2013-06-17 00:01:00,
2013-06-16 18:11:00,62.0,39.0,30.04,North,8,2.0,-999.0,42,-99.99,,,-99.99,,2013-06-17 00:11:00,
2013-06-16 18:22:00,63.0,38.0,30.03,NW,314,1.0,-999.0,39,-99.99,,,-99.99,,2013-06-17 00:22:00,
2013-06-16 18:32:00,63.0,36.0,30.03,NE,54,2.0,-999.0,37,-99.99,,,-99.99,,2013-06-17 00:32:00,
2013-06-16 18:42:00,64.0,39.0,30.03,NW,322,1.0,-999.0,40,-99.99,,,-99.99,,2013-06-17 00:42:00,
2013-06-16 18:52:00,63.0,39.0,30.03,NE,39,2.0,-999.0,41,-99.99,,,-99.99,,2013-06-17 00:52:00,
2013-06-16 19:02:00,62.0,37.0,30.02,NE,35,2.0,-999.0,40,-99.99,,,-99.99,,2013-06-17 01:02:00,
2013-06-16 19:11:00,62.0,38.0,30.03,NNE,20,2.0,-999.0,41,-99.99,,,-99.99,,2013-06-17 01:11:00,
2013-06-16 19:22:00,62.0,38.0,30.02,NNW,343,1.0,-999.0,41,-99.99,,,-99.99,,2013-06-17 01:22:00,
2013-06-16 19:32:00,63.0,38.0,30.02,NW,326,1.0,-999.0,39,-99.99,,,-99.99,,2013-06-17 01:32:00,
2013-06-16 19:43:00,62.0,38.0,30.02,East,83,2.0,-999.0,41,-99.99,,,-99.99,,2013-06-17 01:43:00,
2013-06-16 19:53:00,61.0,38.0,30.02,East,83,0.0,-999.0,42,-99.99,,,-99.99,,2013-06-17 01:53:00,
2013-06-16 20:02:00,60.0,36.0,30.02,NNE,29,2.0,-999.0,41,-99.99,,,-99.99,,2013-06-17 02:02:00,
2013-06-16 20:11:00,61.0,38.0,30.02,NNE,29,0.0,-999.0,42,-99.99,,,-99.99,,2013-06-17 02:11:00,
2013-06-16 20:22:00,62.0,37.0,30.02,NNE,29,0.0,-999.0,40,-99.99,,,-99.99,,2013-06-17 02:22:00,
2013-06-16 20:34:00,63.0,38.0,30.02,NNE,29,0.0,-999.0,39,-99.99,,,-99.99,,2013-06-17 02:34:00,
2013-06-16 20:43:00,62.0,37.0,30.02,NNE,29,0.0,-999.0,40,-99.99,,,-99.99,,2013-06-17 02:43:00,
2013-06-16 20:53:00,62.0,39.0,30.02,NNE,29,0.0,-999.0,43,-99.99,,,-99.99,,2013-06-17 02:53:00,
2013-06-16 21:02:00,58.0,40.0,30.01,NNE,22,0.0,-999.0,51,-99.99,,,-99.99,,2013-06-17 03:02:00,
2013-06-16 21:11:00,58.0,40.0,30.01,NNE,22,0.0,-999.0,52,-99.99,,,-99.99,,2013-06-17 03:11:00,
2013-06-16 21:22:00,58.0,40.0,30.01,NNE,22,0.0,-999.0,52,-99.99,,,-99.99,,2013-06-17 03:22:00,
2013-06-16 21:33:00,57.0,40.0,30.01,North,354,1.0,-999.0,53,-99.99,,,-99.99,,2013-06-17 03:33:00,
2013-06-16 21:44:00,57.0,40.0,30.01,NW,314,1.0,-999.0,52,-99.99,,,-99.99,,2013-06-17 03:44:00,
2013-06-16 21:53:00,57.0,40.0,30.01,WNW,303,1.0,-999.0,53,-99.99,,,-99.99,,2013-06-17 03:53:00,
2013-06-16 22:02:00,56.0,39.0,30.02,SW,216,2.0,-999.0,53,-99.99,,,-99.99,,2013-06-17 04:02:00,
2013-06-16 22:12:00,56.0,39.0,30.01,SSW,194,5.0,-999.0,52,-99.99,,,-99.99,,2013-06-17 04:12:00,
2013-06-16 22:22:00,56.0,39.0,30.01,SSW,212,5.0,-999.0,52,-99.99,,,-99.99,,2013-06-17 04:22:00,
2013-06-16 22:33:00,56.0,39.0,30.01,SSW,210,5.0,-999.0,52,-99.99,,,-99.99,,2013-06-17 04:33:00,
2013-06-16 22:42:00,55.0,38.0,30.01,SW,218,7.0,-999.0,53,-99.99,,,-99.99,,2013-06-17 04:42:00,
2013-06-16 22:53:00,55.0,39.0,30.01,SW,215,7.0,-999.0,54,-99.99,,,-99.99,,2013-06-17 04:53:00,
2013-06-16 23:02:00,54.0,38.0,30.01,SW,222,8.0,-999.0,55,-99.99,,,-99.99,,2013-06-17 05:02:00,
2013-06-16 23:11:00,54.0,39.0,30.02,SW,220,9.0,-999.0,56,-99.99,,,-99.99,,2013-06-17 05:11:00,
2013-06-16 23:22:00,53.0,39.0,30.01,SW,226,10.0,-999.0,58,-99.99,,,-99.99,,2013-06-17 05:22:00,
2013-06-16 23:33:00,53.0,39.0,30.02,SW,214,9.0,-999.0,60,-99.99,,,-99.99,,2013-06-17 05:33:00,
2013-06-16 23:44:00,52.0,39.0,30.02,SSW,208,7.0,-999.0,61,-99.99,,,-99.99,,2013-06-17 05:44:00,
2013-06-16 23:53:00,52.0,39.0,30.02,South,186,5.0,-999.0,61,-99.99,,,-99.99,,2013-06-17 05:53:00,